Temperature
17 17 17 18 18 18 18 18 18 18 18 18 18 18 18 18 18 18 18 18 18 18 18 18 18 18 18 18 18 18 18 18 18 18 17 17 17 18 18 17 17 17 17
17 17 18 18 18 18 18 18 18 18 18 18 18 18 18 18 18 18 18 18 18 18 18 18 18 18 18 18 18 18 18 18 17 17 17 17 17 17 17 17 17 17 17
17 18 18 18 18 18 18 18 18 18 18 18 18 18 18 18 18 18 18 18 18 18 18 18 18 18 18 18 18 18 18 17 17 17 17 17 17 17 17 17 17 17 17
18 18 18 18 18 18 18 18 18 18 18 18 18 18 18 18 18 18 18 18 18 18 18 18 18 18 18 18 18 18 17 17 17 17 17 17 17 17 17 17 17 17 17
18 18 18 18 18 18 18 18 18 18 18 18 18 18 18 18 18 18 18 18 18 18 18 18 18 18 18 18 18 17 17 17 17 17 17 17 17 17 17 17 17 17 17
18 18 18 18 18 18 18 18 18 18 18 18 18 18 18 18 18 18 18 18 18 18 17 17 17 17 17 18 17 17 17 17 17 17 17 17 17 17 17 17 17 17 17
18 18 18 18 18 18 18 18 18 18 18 18 18 18 18 18 18 18 18 18 18 18 17 17 17 17 17 17 17 17 17 17 17 17 17 17 17 17 17 17 17 17 17
18 18 18 18 18 18 18 18 18 18 18 18 18 18 18 18 18 18 18 18 18 18 18 18 17 17 17 17 17 17 17 17 17 17 17 17 17 17 17 17 17 17 17
18 18 18 18 18 18 18 18 18 18 18 18 18 18 18 18 18 18 18 18 18 18 18 18 17 17 17 17 17 17 17 17 17 17 17 17 17 17 17 17 17 17 17
18 18 18 18 18 18 18 18 18 18 18 18 18 18 18 18 18 18 18 18 18 18 18 18 17 17 17 17 17 17 17 17 17 17 17 17 17 17 17 17 17 17 17
18 18 18 18 18 18 18 18 18 18 18 18 18 18 18 18 18 18 18 18 18 18 17 18 17 17 17 17 17 17 17 17 17 17 17 17 17 17 17 17 17 17 17
18 18 18 18 18 18 18 18 18 18 18 18 18 18 18 18 18 18 18 18 18 18 18 18 18 17 18 18 17 17 17 17 17 17 17 17 17 17 17 17 17 17 17
19 18 18 18 18 18 18 18 18 18 18 18 18 18 18 18 18 18 18 18 18 18 18 18 18 18 18 17 17 17 17 17 17 17 17 17 17 17 17 17 17 17 17
19 19 18 18 18 18 18 18 18 18 18 18 18 18 18 18 18 18 18 18 18 18 18 18 18 18 18 18 18 17 17 17 17 17 17 17 17 17 17 17 17 17 16
19 19 18 18 18 18 18 18 18 18 18 18 18 18 18 18 18 18 18 18 18 18 18 18 18 18 18 18 17 17 17 17 17 17 17 17 17 17 17 17 17 17 16
19 19 19 19 18 18 18 18 18 18 18 18 18 18 18 18 18 18 18 18 18 18 18 18 18 18 18 18 17 17 17 17 17 17 17 17 17 17 17 16 16 16 16
19 19 19 19 18 18 18 18 18 18 18 18 18 18 18 18 18 18 18 18 18 18 18 18 18 17 17 17 17 17 17 17 17 17 17 17 17 17 16 16 16 16 16
19 19 19 19 19 18 18 18 18 18 18 18 18 18 18 18 18 18 18 18 18 18 18 18 18 17 17 17 17 17 17 17 17 17 17 17 17 17 16 16 16 16 16
20 19 19 19 19 19 18 18 18 18 18 18 18 18 18 18 18 18 18 18 18 18 17 17 17 17 17 17 17 17 17 17 17 17 17 17 16 16 16 16 16 16 16
20 20 19 19 19 19 18 18 18 18 18 18 18 18 18 18 18 18 18 18 18 17 17 17 17 17 17 17 17 17 17 17 17 17 17 16 16 16 16 16 16 16 16
20 20 20 19 19 19 19 18 18 18 18 18 18 18 18 18 18 18 18 18 17 17 17 17 17 17 17 17 17 17 17 17 17 16 16 16 16 16 16 16 16 16 16
20 20 20 20 19 19 19 19 18 18 18 18 18 18 18 18 18 17 17 17 17 17 17 17 17 17 17 17 17 17 16 16 16 16 16 16 16 16 16 16 16 16 16
21 20 20 20 20 19 19 19 18 18 18 18 18 18 18 17 17 17 17 17 17 17 17 17 17 17 17 17 17 16 16 16 16 16 16 16 16 16 16 16 16 16 15
21 21 20 20 20 19 19 19 19 18 18 18 18 18 18 18 17 17 17 17 17 17 17 17 17 17 17 17 17 16 16 16 16 15 15 15 15 15 15 15 15 15 15
22 21 21 20 20 20 19 19 19 19 18 18 18 18 18 17 17 17 17 17 17 17 17 17 17 17 17 17 17 16 16 16 16 15 15 15 15 15 15 15 15 15 15
22 21 21 21 20 20 20 19 19 19 18 18 18 18 18 18 17 17 17 17 17 17 17 17 17 17 17 16 16 16 16 16 16 16 15 15 15 15 15 15 15 15 15
Wind_Speed
3 4 7 11 12 13 14 14 15 16 16 16 16 17 17 17 17 17 17 16 17 17 17 17 17 17 17 17 16 16 16 17 16 16 16 15 15 15 14 14 14 13 14
1 3 7 10 11 13 14 14 15 15 15 16 16 17 17 17 17 17 16 16 16 17 17 17 17 17 17 16 16 16 16 16 15 15 15 14 14 14 13 13 13 12 14
2 3 7 9 11 13 14 14 14 15 16 16 16 16 16 16 16 16 16 16 15 16 16 16 16 17 16 16 15 15 15 14 14 14 13 11 12 12 12 12 13 13 13
3 4 6 10 11 12 13 14 15 16 16 16 16 16 15 15 15 15 15 15 15 15 15 15 15 15 15 14 14 13 13 13 13 12 10 10 9 11 11 12 12 12 12
3 4 6 9 11 12 13 14 14 15 15 15 15 15 15 15 15 15 15 14 15 14 14 14 14 14 13 13 12 12 12 11 11 10 9 8 8 10 11 11 11 11 11
3 4 6 9 11 12 12 13 13 14 14 14 14 14 13 13 13 14 13 13 13 13 13 13 12 12 11 11 11 11 11 10 9 8 8 7 7 9 9 10 9 10 10
3 3 5 8 10 11 11 12 12 13 13 13 13 12 12 12 12 12 12 12 12 12 11 11 11 11 10 9 10 10 10 10 8 7 6 6 6 8 8 8 8 8 9
3 3 5 7 9 9 10 10 11 11 11 11 11 11 10 10 10 11 10 10 10 10 10 10 10 9 8 8 9 9 9 9 7 6 5 5 7 8 8 8 7 7 8
3 4 4 5 7 8 8 9 9 9 10 9 9 9 9 8 8 8 8 8 9 8 8 8 8 7 7 7 7 8 8 7 6 5 5 5 7 7 7 7 7 7 7
3 3 4 4 5 5 5 7 8 8 8 8 8 8 7 7 7 6 6 6 7 7 6 6 6 6 5 5 6 6 6 6 6 4 4 5 7 7 7 6 6 6 7
2 2 2 3 3 3 4 5 6 7 7 7 6 6 6 5 5 5 5 5 5 5 5 5 4 4 4 4 4 5 5 5 5 4 4 5 6 6 6 6 6 6 6
2 1 1 1 2 2 2 4 4 4 5 5 5 5 5 4 4 4 4 4 5 5 5 4 4 4 3 3 3 3 3 4 4 3 4 5 6 6 6 7 7 7 7
3 2 1 1 1 1 2 3 3 3 3 3 4 4 4 4 4 4 4 3 4 4 4 4 4 3 3 2 3 3 3 3 3 3 4 5 6 6 7 7 7 7 8
3 2 2 2 2 2 2 2 2 2 1 1 1 2 2 2 2 2 2 2 3 3 3 3 2 2 3 3 3 3 3 2 3 3 4 5 6 7 7 7 7 7 8
4 3 3 2 2 2 2 1 1 1 1 1 0 1 1 1 1 1 1 2 2 2 2 2 2 2 2 2 2 2 2 2 2 3 3 4 5 6 6 6 7 7 7
5 4 3 3 3 3 2 1 1 2 1 1 1 1 2 1 0 1 1 1 1 1 1 1 2 2 2 2 2 2 1 1 1 2 2 2 4 5 5 6 6 7 7
6 5 4 4 3 3 2 2 2 2 2 1 2 2 2 2 1 1 1 1 1 1 2 2 3 3 2 2 2 2 1 1 1 1 1 1 2 4 6 6 6 6 6
5 5 4 4 4 3 3 2 2 2 2 2 3 2 2 3 3 2 1 1 1 1 2 2 1 2 2 2 1 1 1 1 0 0 0 1 1 2 4 5 5 6 6
6 5 4 3 4 4 3 2 2 1 1 1 2 2 2 3 3 3 1 1 1 1 1 1 1 2 2 1 1 1 1 1 1 0 0 1 1 2 3 4 4 4 4
5 5 5 4 4 4 2 2 1 1 1 0 0 1 2 2 2 2 1 0 1 1 1 1 2 1 2 1 1 2 1 1 1 1 1 1 1 2 2 2 3 3 3
5 5 5 5 4 3 2 2 1 1 0 0 0 1 1 1 1 2 1 1 1 1 1 1 2 2 1 2 2 2 2 2 2 1 1 1 1 1 1 1 2 2 2
7 6 5 5 4 4 3 2 2 2 1 1 1 1 1 1 1 1 1 1 1 1 1 1 2 1 1 1 2 1 1 2 2 2 1 1 1 2 2 1 1 1 2
8 8 7 6 5 4 4 3 3 3 2 1 1 1 2 1 1 1 1 1 1 1 1 1 2 2 2 1 1 2 2 1 1 1 2 1 2 1 1 1 1 2 2
9 8 7 6 5 4 4 4 4 3 2 2 1 1 2 2 1 1 1 1 1 1 1 2 2 2 3 2 1 1 1 2 2 0 1 2 1 1 1 1 1 1 1
9 8 7 6 5 5 5 5 5 3 2 1 0 1 1 2 2 1 1 1 1 1 1 1 1 1 1 2 1 1 1 1 1 2 1 1 1 1 1 1 1 1 1
8 8 7 7 6 5 5 5 6 5 4 2 1 1 1 1 1 2 1 0 1 1 1 2 1 1 1 1 1 1 1 2 2 2 2 1 1 1 1 1 2 2 2
Wind_Direction
328 349 42 69 75 79 81 87 90 94 97 98 100 101 100 101 102 102 106 103 106 107 107 107 107 108 108 109 109 110 110 111 111 113 114 114 113 113 113 111 111 112 114
314 18 71 76 77 79 82 85 87 94 98 96 98 101 101 100 101 102 103 103 103 105 106 106 107 108 107 107 108 109 109 110 112 113 113 113 114 115 115 115 114 117 118
45 54 89 84 81 82 85 86 88 95 98 95 97 99 100 99 100 101 103 103 104 105 105 107 106 105 106 108 109 109 109 110 111 110 108 107 114 117 118 119 119 121 121
75 70 88 86 84 87 87 89 91 93 95 97 96 98 99 99 100 102 104 104 105 104 105 107 107 107 108 110 111 112 112 112 113 110 105 109 114 120 122 123 124 125 126
73 76 91 87 88 91 91 92 93 94 94 94 94 97 99 99 100 100 101 103 104 104 106 108 111 113 112 112 113 115 117 115 114 109 103 103 112 125 129 131 133 133 132
73 81 99 95 96 96 95 94 96 96 95 94 93 93 97 98 99 99 100 102 102 103 105 108 111 113 112 115 118 120 120 119 111 108 108 112 121 132 136 139 140 139 138
80 75 100 100 102 100 99 98 99 99 99 98 95 93 92 95 98 100 102 103 103 104 105 107 108 112 113 115 120 124 122 124 116 117 118 124 135 142 146 147 146 145 146
96 77 93 102 106 103 102 101 102 102 101 101 99 96 93 92 96 100 102 104 104 103 104 107 109 111 110 114 120 126 128 130 126 128 129 136 147 149 153 154 155 155 155
84 72 66 88 101 105 107 106 106 105 104 103 102 101 100 99 98 99 101 104 106 106 107 111 113 112 111 115 121 128 132 134 129 132 138 145 153 155 162 165 163 164 166
70 61 61 69 81 89 103 107 107 106 105 105 103 100 97 95 94 95 97 103 108 111 112 116 118 119 117 121 126 132 132 129 131 136 145 158 160 167 171 171 172 175 177
89 53 62 67 76 89 102 107 102 100 99 94 94 91 76 67 70 75 81 90 96 102 106 109 113 117 113 111 125 131 128 133 142 148 162 170 175 182 185 185 187 188 187
170 164 96 90 95 106 108 96 86 85 83 81 79 73 62 60 59 65 70 76 75 84 97 104 96 88 87 83 97 119 125 141 149 163 177 183 189 196 197 198 201 198 193
185 183 168 153 138 116 100 106 92 86 81 77 77 75 67 58 47 48 44 39 48 59 59 65 63 64 75 93 110 124 144 153 164 175 180 191 204 209 207 204 207 202 195
169 192 185 168 150 136 124 121 119 105 89 80 73 91 93 68 43 39 34 37 40 47 53 52 70 73 72 85 107 128 152 175 183 189 196 201 211 214 217 214 210 207 202
184 200 199 176 164 151 129 145 139 151 162 180 124 88 123 106 53 38 14 20 29 51 66 58 66 71 67 64 81 118 145 180 203 206 217 219 222 224 229 226 221 217 209
198 199 199 192 186 162 158 172 182 191 189 201 243 243 219 202 221 54 25 1 4 40 70 82 74 75 71 68 66 79 98 152 178 197 221 242 239 234 237 238 233 222 216
199 194 191 192 178 169 180 194 192 195 180 220 252 243 222 209 207 183 111 21 328 21 81 84 79 84 78 74 62 55 60 65 105 167 217 249 262 252 248 246 243 235 228
189 191 198 192 170 178 182 191 199 193 183 213 235 229 219 217 210 191 175 213 243 140 105 103 95 91 85 81 61 20 39 43 38 243 226 258 270 276 272 264 255 247 245
189 186 189 182 174 183 177 172 178 173 173 201 214 218 223 220 211 194 188 179 159 138 122 128 109 129 129 116 96 38 24 13 338 325 283 273 268 278 284 292 273 259 257
186 180 180 175 177 165 147 126 110 85 79 84 207 242 238 221 207 181 183 114 128 117 85 103 129 124 133 129 96 52 22 350 5 352 317 341 331 307 307 307 303 289 271
181 180 180 174 174 153 142 147 139 150 79 22 264 267 261 245 193 165 168 136 138 139 163 145 136 124 115 122 96 47 21 36 48 26 21 18 2 338 355 346 330 324 323
189 189 186 186 181 176 170 159 151 140 125 121 8 1 300 256 220 176 171 201 167 146 134 132 141 133 147 151 138 114 8 6 21 31 45 48 2 16 18 13 23 26 16
193 193 196 195 187 180 162 123 100 79 57 37 1 337 326 310 280 243 219 184 175 170 190 190 170 166 194 216 178 162 162 222 316 1 28 26 21 19 10 31 42 32 37
200 191 189 187 182 175 158 152 154 160 175 208 234 288 337 348 316 270 239 208 204 191 203 218 190 191 181 211 226 214 190 169 179 273 4 22 28 16 2 26 23 24 35
192 184 183 180 182 175 166 167 162 170 184 178 174 322 339 347 326 307 273 210 232 227 228 233 199 189 194 202 206 188 175 184 187 193 248 317 7 12 14 17 21 22 25
184 180 178 178 186 179 173 174 175 180 179 166 187 265 310 328 329 327 292 260 227 226 232 228 201 188 202 203 203 184 187 193 193 190 212 242 299 340 19 27 23 14 33
Height
1514 1512 1510 1509 1508 1507 1507 1507 1507 1508 1509 1510 1511 1512 1513 1513 1514 1515 1517 1518 1520 1522 1524 1526 1527 1529 1531 1532 1534 1536 1538 1539 1540 1542 1544 1545 1547 1548 1550 1551 1552 1553 1555
1516 1514 1513 1512 1511 1511 1510 1509 1510 1511 1512 1513 1514 1515 1516 1517 1518 1519 1520 1522 1523 1524 1526 1528 1529 1531 1533 1535 1536 1538 1539 1541 1543 1544 1546 1547 1549 1550 1552 1553 1554 1555 1556
1518 1516 1516 1515 1515 1514 1513 1513 1513 1514 1515 1516 1517 1519 1520 1521 1522 1523 1524 1525 1526 1528 1529 1531 1532 1534 1536 1537 1539 1540 1542 1543 1545 1546 1548 1549 1551 1552 1553 1554 1555 1556 1558
1520 1519 1518 1518 1517 1517 1517 1517 1517 1518 1519 1520 1521 1522 1523 1524 1525 1526 1527 1529 1530 1531 1532 1533 1535 1536 1538 1540 1541 1543 1544 1546 1547 1548 1550 1551 1552 1554 1555 1556 1557 1558 1559
1522 1521 1521 1520 1521 1521 1520 1521 1521 1522 1522 1523 1524 1525 1526 1527 1528 1529 1531 1532 1533 1534 1535 1536 1537 1539 1541 1542 1544 1545 1546 1548 1549 1550 1552 1553 1554 1555 1556 1557 1558 1559 1560
1525 1524 1524 1524 1524 1524 1524 1525 1525 1525 1526 1527 1528 1528 1529 1530 1531 1533 1533 1535 1536 1537 1537 1538 1540 1542 1543 1545 1546 1547 1548 1550 1551 1552 1553 1554 1555 1556 1557 1558 1559 1560 1561
1527 1527 1527 1527 1528 1528 1528 1529 1529 1529 1530 1531 1531 1532 1533 1534 1535 1536 1537 1538 1539 1539 1540 1541 1542 1544 1545 1547 1548 1549 1550 1551 1552 1553 1554 1556 1556 1557 1558 1559 1560 1561 1561
1530 1530 1530 1529 1531 1531 1532 1532 1532 1533 1534 1534 1535 1536 1536 1537 1538 1539 1540 1541 1542 1542 1543 1544 1545 1546 1547 1549 1550 1551 1552 1553 1554 1555 1556 1557 1558 1558 1559 1560 1560 1561 1562
1533 1533 1533 1533 1534 1535 1535 1535 1536 1536 1537 1537 1538 1539 1540 1540 1541 1542 1543 1543 1544 1545 1546 1546 1547 1549 1550 1551 1551 1552 1553 1554 1555 1556 1557 1558 1558 1559 1559 1560 1560 1561 1562
1535 1536 1536 1536 1537 1537 1538 1538 1539 1539 1540 1540 1541 1542 1542 1543 1544 1544 1545 1546 1546 1547 1548 1549 1550 1551 1552 1552 1553 1554 1555 1555 1556 1557 1558 1558 1559 1560 1560 1560 1561 1561 1561
1537 1538 1538 1539 1539 1540 1540 1541 1541 1542 1543 1543 1544 1544 1545 1545 1546 1546 1547 1548 1548 1549 1550 1550 1551 1552 1553 1554 1555 1556 1556 1557 1557 1558 1559 1559 1559 1560 1560 1561 1561 1561 1561
1539 1539 1540 1541 1541 1542 1543 1543 1544 1544 1545 1546 1546 1546 1547 1547 1547 1548 1548 1549 1550 1550 1551 1552 1553 1554 1555 1555 1556 1556 1557 1558 1558 1559 1559 1560 1560 1560 1560 1560 1561 1561 1561
1540 1541 1542 1543 1544 1544 1545 1546 1546 1547 1547 1548 1548 1549 1549 1549 1549 1549 1550 1550 1551 1552 1552 1553 1554 1555 1556 1556 1556 1557 1558 1558 1559 1559 1559 1560 1560 1560 1560 1560 1560 1560 1561
1542 1543 1544 1545 1545 1546 1547 1548 1548 1549 1549 1550 1550 1550 1551 1551 1551 1551 1551 1551 1552 1553 1553 1554 1555 1555 1556 1556 1557 1557 1558 1558 1559 1559 1560 1560 1560 1560 1560 1560 1560 1560 1560
1543 1545 1546 1546 1547 1548 1549 1550 1550 1551 1551 1552 1552 1552 1552 1552 1553 1553 1553 1553 1553 1554 1554 1554 1555 1556 1556 1557 1557 1557 1558 1558 1559 1559 1559 1560 1560 1560 1560 1560 1559 1559 1560
1545 1546 1547 1548 1549 1550 1550 1551 1552 1552 1553 1553 1553 1553 1554 1554 1554 1554 1554 1554 1554 1555 1555 1555 1556 1556 1557 1557 1557 1557 1558 1558 1558 1558 1558 1559 1559 1559 1559 1559 1559 1559 1559
1545 1546 1548 1549 1550 1551 1551 1552 1553 1553 1554 1554 1554 1554 1554 1555 1555 1555 1555 1555 1555 1555 1555 1555 1556 1556 1556 1556 1557 1557 1557 1557 1557 1557 1557 1558 1558 1558 1558 1558 1558 1558 1558
1546 1547 1548 1549 1550 1551 1552 1553 1553 1554 1554 1555 1555 1555 1555 1555 1555 1555 1555 1555 1555 1555 1555 1555 1555 1556 1556 1556 1556 1556 1556 1556 1556 1556 1556 1556 1556 1556 1556 1557 1556 1556 1556
1546 1547 1548 1549 1550 1551 1552 1553 1554 1554 1555 1555 1555 1555 1555 1556 1556 1556 1556 1556 1556 1556 1555 1555 1555 1555 1555 1555 1555 1555 1556 1555 1555 1555 1555 1555 1555 1555 1555 1555 1555 1555 1555
1546 1547 1548 1549 1550 1551 1552 1553 1554 1554 1555 1555 1555 1555 1555 1555 1556 1556 1556 1555 1555 1555 1555 1555 1555 1555 1555 1555 1554 1554 1554 1554 1554 1554 1554 1554 1554 1554 1554 1553 1553 1553 1553
1545 1547 1548 1549 1550 1551 1552 1553 1553 1554 1554 1555 1555 1555 1555 1555 1555 1555 1555 1555 1555 1555 1554 1554 1554 1554 1554 1554 1554 1553 1553 1553 1553 1553 1553 1553 1553 1553 1552 1552 1552 1551 1551
1544 1546 1547 1548 1550 1551 1552 1553 1553 1554 1554 1555 1555 1555 1555 1555 1555 1555 1555 1554 1554 1554 1554 1553 1553 1553 1553 1553 1553 1552 1552 1553 1552 1552 1552 1552 1551 1551 1551 1551 1550 1550 1549
1543 1544 1546 1547 1549 1550 1551 1552 1553 1554 1554 1554 1555 1555 1555 1555 1555 1555 1554 1554 1553 1553 1553 1553 1553 1552 1552 1552 1552 1552 1552 1551 1551 1551 1551 1551 1550 1550 1550 1549 1549 1548 1548
1541 1543 1545 1547 1548 1549 1551 1551 1552 1553 1553 1554 1554 1554 1554 1554 1554 1554 1554 1553 1553 1552 1552 1552 1552 1551 1551 1550 1551 1551 1551 1550 1550 1550 1550 1549 1549 1549 1548 1548 1547 1547 1547
1539 1541 1543 1545 1547 1548 1549 1550 1551 1552 1553 1553 1553 1553 1553 1553 1553 1553 1553 1552 1552 1551 1551 1551 1550 1550 1550 1549 1549 1549 1549 1549 1548 1548 1548 1548 1548 1548 1547 1547 1546 1546 1545
1536 1539 1541 1543 1545 1547 1548 1549 1550 1551 1552 1552 1552 1552 1553 1552 1552 1552 1552 1551 1551 1550 1550 1550 1549 1549 1548 1548 1548 1547 1547 1547 1546 1546 1546 1545 1545 1546 1546 1545 1545 1544 1544